星链-34924 (STARLINK-34924)

导读

STARLINK-34924是美国于2025年9月3日发射的星链卫星,属于SpaceX星链星座组网计划的组成部分。星链系统旨在构建全球卫星互联网,为全球偏远地区、海洋空域等提供高速低延迟的宽带网络服务,该卫星的发射进一步推进了星链星座的部署进程,扩充了星座的网络覆盖能力。

基本信息
目录编号:
65469
目录名称:
STARLINK-34924
国际标识:
2025-195M
轨道中心:
EARTH
卫星名称:
星链-34924
卫星全名:
星链-34924 (STARLINK-34924)
卫星状态:
在轨 (已飞行283 天)
发射日期:
2025-09-03 UTC
国别 :
美国 (US)
星等 :
--
轨道信息
数据来源 国际轨道数据
星历时间: 2026-06-13T15:13:55+0800
8小时前
查看轨道信息
半长轴: 6840.812km
偏心率: 0.0001089
轨道倾角: 53.158°
近地点辐角 99.839°
升交点赤经 173.272°
平近点角 260.274°
近地点: 461.93km
远地点: 463.42km
周期: 93.847分钟
每日圈数: 15.344097
详细信息
固有亮度:
5
最大亮度:
2.5
卫星平台:
Starlink V1.0
覆盖范围:
全球
运营商:
太空探索技术公司
运营商所在国:
美国
制造商(研发单位):
太空探索技术公司
制造商所在国:
美国
使用方式:
暂无
卫星简介
Starlink 计划是 SpaceX 推出的全球卫星互联网项目,通过发射低轨道卫星,为全球尤其是偏远地区提供高速、低延迟的互联网服务。自 2019 年起,Starlink 已部署数千颗卫星,旨在缩小全球数字鸿沟,推动互联网普及。该项目还为军事、航空等行业提供通信支持,带来广泛经济效益。
2D轨道图
3D轨道图
轨道高度分析图
轨道倾角分析图
轨道综合分析图
查看轨道综合分析图